星链-34845 (STARLINK-34845)

导读

STARLINK-34845是美国SpaceX星链互联网星座的一员,于2025年8月22日发射,星链项目旨在为全球提供高速低延迟卫星互联网服务,该卫星延续星链标准设计,运行近地轨道,属于美国大规模部署低轨卫星星座计划的组成部分,进一步扩充星链星座规模。

Basic Information
目录编号:
65289
目录名称:
STARLINK-34845
国际标识:
2025-184S
轨道中心:
EARTH
卫星名称:
星链-34845
卫星全名:
星链-34845 (STARLINK-34845)
卫星状态:
在轨 (已飞行295 天)
发射日期:
2025-08-22 UTC
国别 :
美国 (US)
星等 :
--
Orbit Information
数据来源 国际轨道数据 AOE轨道数据
星历时间 2026-06-13T10:58:19+0800
16小时前
查看轨道信息
2026-06-09T00:00:00+0800
5天前
查看轨道信息
半长轴 6927.643km 6927.631km
偏心率 0.0002524 0.0002419
轨道倾角 97.364° 97.388°
近地点辐角 96.799° 101.156°
升交点赤经 215.920° 211.661°
平近点角 263.353° 234.889°
近地点 547.757km 547.818km
远地点 551.255km 551.17km
周期 95.640分钟 95.639分钟
每日圈数 15.05652 15.056557
Detailed Information
固有亮度:
5
最大亮度:
2.5
卫星平台:
Starlink V1.0
覆盖范围:
全球
运营商:
太空探索技术公司
运营商所在国:
美国
制造商(研发单位):
太空探索技术公司
制造商所在国:
美国
使用方式:
暂无
Satellite Introduction
Starlink 计划是 SpaceX 推出的全球卫星互联网项目,通过发射低轨道卫星,为全球尤其是偏远地区提供高速、低延迟的互联网服务。自 2019 年起,Starlink 已部署数千颗卫星,旨在缩小全球数字鸿沟,推动互联网普及。该项目还为军事、航空等行业提供通信支持,带来广泛经济效益。
2D Orbit Map
3D Orbit Map
Orbit Altitude Analysis Chart
Orbit Inclination Analysis Chart
Orbit Comprehensive Analysis Chart
View Comprehensive Chart